This demonstration page uses our WeatherBlox Daily Observations layout. Learn more.

Left ArrowRight Arrow

34.16533, -84.80231

Hourly Observations for February 17, 2022

Temp ( °F °C ) Dew Point ( °F °C ) Humidity (%) Winds ( mph kmh ) Pressure ( in mb ) Visibility ( mi km ) Precip ( " mm )
12:15 am 00:15 Cloudy 57 14 46 8 67 67 ESE 5 7 30.27 1025 10 16 0.00 0.00
12:35 am 00:35 Cloudy 59 15 48 9 68 68 ESE 5 7 30.28 1025 10 16 0.00 0.00
12:55 am 00:55 Mostly Cloudy 59 15 48 9 68 68 VRB 3 6 30.27 1025 10 16 0.00 0.00
1:15 am 01:15 Cloudy 59 15 48 9 68 68 SE 6 9 30.27 1025 10 16 0.00 0.00
1:35 am 01:35 Cloudy 59 15 50 10 72 72 VRB 5 7 30.27 1025 10 16 0.00 0.00
1:55 am 01:55 Cloudy 59 15 50 10 72 72 VRB 3 6 30.26 1025 10 16 0.00 0.00
2:15 am 02:15 Cloudy 59 15 50 10 72 72 SE 6 9 30.27 1025 10 16 0.00 0.00
2:35 am 02:35 Cloudy 59 15 50 10 72 72 ESE 5 7 30.27 1025 10 16 0.00 0.00
2:55 am 02:55 Cloudy 59 15 52 11 77 77 VRB 7 11 30.25 1024 10 16 0.00 0.00
3:15 am 03:15 Cloudy 59 15 52 11 77 77 VRB 6 9 30.24 1024 10 16 0.00 0.00
3:35 am 03:35 Cloudy 59 15 52 11 77 77 VRB 3 6 30.24 1024 10 16 0.00 0.00
3:55 am 03:55 Cloudy 59 15 54 12 82 82 SE 8 13 30.23 1024 10 16 0.00 0.00
4:15 am 04:15 Cloudy 59 15 54 12 82 82 VRB 6 9 30.22 1023 10 16 0.00 0.00
4:35 am 04:35 Cloudy 59 15 54 12 82 82 VRB 7 11 30.22 1023 10 16 0.00 0.00
4:55 am 04:55 Cloudy 59 15 54 12 82 82 SSE 13 20 30.22 1023 10 16 0.00 0.00
5:15 am 05:15 Cloudy 59 15 54 12 82 82 VRB 7 11 30.22 1023 10 16 0.00 0.00
5:35 am 05:35 Cloudy 59 15 54 12 82 82 VRB 6 9 30.21 1023 9 14 0.00 0.00
5:55 am 05:55 Cloudy 59 15 54 12 82 82 VRB 7 11 30.21 1023 9 14 0.00 0.00
6:15 am 06:15 Cloudy 59 15 54 12 82 82 SE 8 13 30.20 1023 9 14 0.00 0.00
6:35 am 06:35 Cloudy 59 15 54 12 82 82 ESE 8 13 30.20 1023 9 14 0.00 0.00
6:55 am 06:55 Cloudy 59 15 54 12 82 82 ESE 8 13 30.20 1023 9 14 0.00 0.00
7:15 am 07:15 Cloudy 59 15 54 12 82 82 SE 6 9 30.19 1022 9 14 0.00 0.00
7:35 am 07:35 Cloudy 59 15 54 12 82 82 ESE 10 17 30.19 1022 9 14 0.00 0.00
7:55 am 07:55 Cloudy 59 15 54 12 82 82 VRB 7 11 30.18 1022 8 13 0.00 0.00
8:15 am 08:15 Cloudy 59 15 55 13 88 88 ESE 8 13 30.18 1022 8 13 0.00 0.00
8:35 am 08:35 Cloudy 59 15 55 13 88 88 ESE 8 13 30.17 1022 7 11 0.00 0.00
8:55 am 08:55 Cloudy 59 15 55 13 88 88 E 6 9 30.17 1022 7 11 0.00 0.00
9:15 am 09:15 Cloudy 59 15 55 13 88 88 VRB 7 11 30.16 1021 8 13 0.00 0.00
9:35 am 09:35 Cloudy 63 17 57 14 83 83 SE 10 17 30.13 1020 9 14 0.00 0.00
9:55 am 09:55 Cloudy 64 18 57 14 78 78 SSE 13 20 30.13 1020 9 14 0.00 0.00
10:15 am 10:15 Cloudy 64 18 57 14 78 78 SSE 16 26 30.12 1020 9 14 0.00 0.00
10:35 am 10:35 Cloudy 64 18 57 14 78 78 SSE 15 24 30.10 1019 9 14 0.00 0.00
10:55 am 10:55 Mostly Cloudy 68 20 57 14 69 69 SSE 16 26 30.08 1019 10 16 0.00 0.00
11:15 am 11:15 Mostly Cloudy 68 20 57 14 69 69 S 14 22 30.07 1018 10 16 0.00 0.00
11:35 am 11:35 Mostly Cloudy 68 20 55 13 64 64 S 16 26 30.06 1018 10 16 0.00 0.00
11:55 am 11:55 Cloudy 68 20 55 13 64 64 S 15 24 30.06 1018 10 16 0.00 0.00
12:15 pm 12:15 Cloudy 68 20 55 13 64 64 SSE 16 26 30.04 1017 10 16 0.00 0.00
12:35 pm 12:35 Cloudy 68 20 55 13 64 64 SSE 13 20 30.03 1017 10 16 0.00 0.00
12:55 pm 12:55 Cloudy 68 20 55 13 64 64 S 14 22 30.02 1017 10 16 0.00 0.00
1:15 pm 13:15 Cloudy 70 21 57 14 64 64 S 12 19 30.00 1016 10 16 0.00 0.00
1:35 pm 13:35 Cloudy 70 21 57 14 64 64 S 8 13 29.99 1016 10 16 0.00 0.00
1:55 pm 13:55 Cloudy 70 21 57 14 64 64 S 15 24 29.97 1015 10 16 0.00 0.00
2:15 pm 14:15 Cloudy 70 21 57 14 64 64 S 15 24 29.95 1014 10 16 0.00 0.00
2:35 pm 14:35 Cloudy 70 21 57 14 64 64 S 13 20 29.94 1014 10 16 0.00 0.00
2:55 pm 14:55 Cloudy 70 21 59 15 69 69 S 15 24 29.93 1014 10 16 0.00 0.00
3:15 pm 15:15 Cloudy 70 21 59 15 69 69 S 21 33 29.91 1013 10 16 0.00 0.00
3:35 pm 15:35 Cloudy 70 21 59 15 69 69 S 14 22 29.90 1013 10 16 0.00 0.00
3:55 pm 15:55 Cloudy 70 21 59 15 69 69 S 15 24 29.88 1012 10 16 0.00 0.00
4:15 pm 16:15 Cloudy 70 21 59 15 69 69 S 18 30 29.88 1012 10 16 0.00 0.00
4:35 pm 16:35 Cloudy 70 21 59 15 69 69 S 16 26 29.87 1012 10 16 0.00 0.00
4:55 pm 16:55 Cloudy 70 21 59 15 69 69 S 16 26 29.87 1012 9 14 0.00 0.00
5:15 pm 17:15 Cloudy with Light Rain 68 20 61 16 78 78 S 9 15 29.87 1012 8 13 0.00 0.00
5:35 pm 17:35 Cloudy 68 20 61 16 78 78 S 13 20 29.85 1011 10 16 0.00 0.00
5:55 pm 17:55 Mostly Cloudy 68 20 61 16 78 78 SSE 15 24 29.84 1011 10 16 0.00 0.00
6:15 pm 18:15 Mostly Cloudy 70 21 61 16 73 73 S 14 22 29.86 1011 10 16 0.00 0.00
6:35 pm 18:35 Cloudy 70 21 61 16 73 73 SSE 14 22 29.83 1010 10 16 0.00 0.00
6:55 pm 18:55 Cloudy 70 21 61 16 73 73 SSE 14 22 29.82 1010 10 16 0.00 0.00
7:15 pm 19:15 Cloudy 70 21 61 16 73 73 SSE 14 22 29.80 1009 10 16 0.00 0.00
7:35 pm 19:35 Cloudy with Light Rain 68 20 61 16 78 78 S 13 20 29.80 1009 6 10 0.00 0.00
7:55 pm 19:55 Cloudy with Light Rain 68 20 63 17 83 83 SSE 14 22 29.78 1009 5 8 0.05 1.27
8:15 pm 20:15 Cloudy with Light Rain 68 20 63 17 83 83 S 16 26 29.77 1008 8 13 0.00 0.00
8:35 pm 20:35 Cloudy with Light Rain 68 20 63 17 83 83 S 20 31 29.75 1008 9 14 0.00 0.00
8:55 pm 20:55 Cloudy with Light Rain 68 20 63 17 83 83 S 24 39 29.76 1008 9 14 0.02 0.51
9:15 pm 21:15 Cloudy 68 20 63 17 83 83 SSW 12 19 29.80 1009 9 14 0.00 0.00
9:35 pm 21:35 Cloudy with Heavy Rain 64 18 63 17 94 94 WSW 15 24 29.86 1011 1 1 0.00 0.00
9:55 pm 21:55 Cloudy with Heavy Rain 63 17 61 16 94 94 W 12 19 29.87 1012 2 3 0.53 13.46
10:15 pm 22:15 Cloudy with Heavy Rain 61 16 61 16 100 100 W 12 19 29.86 1011 2 3 0.00 0.00
10:35 pm 22:35 Cloudy with Rain 61 16 61 16 100 100 VRB 6 9 29.87 1012 3 4 0.00 0.00
10:55 pm 22:55 Cloudy with Light Rain 61 16 61 16 100 100 VRB 5 7 29.86 1011 4 6 0.34 8.64
11:15 pm 23:15 Cloudy with Light Rain 61 16 59 15 94 94 SW 5 7 29.87 1012 4 6 0.00 0.00
11:35 pm 23:35 Cloudy 61 16 59 15 94 94 Calm 29.87 1012 10 16 0.00 0.00
11:55 pm 23:55 Cloudy with Light Rain 61 16 59 15 94 94 VRB 5 7 29.89 1012 5 8 0.08 2.03

Powered by AerisWeather